Location: Baix
(44.7118°N, 4.7648°E)
Time: 09:40:11
(UTC+00:00)

Vanguard 2 Rocket - Pass Details

Date: 30 November 2020
Orbit: 554 x 3325 km, 32.9° (Epoch: 21 January)

Event Time Altitude Azimuth Distance (km) Brightness Sun altitude
Rises 12:03:16 0° 274° (W) 7,159 11.5 23.1°
Reaches altitude 10° 12:08:57 10° 268° (W) 5,894 11.2 22.9°
Maximum altitude 12:23:29 36° 211° (SSW) 3,189 11.3 22.4°
Drops below altitude 10° 12:32:56 10° 150° (SSE) 3,832 10.9 22.0°
Sets 12:35:47 0° 141° (SE) 4,481 10.9 21.8°
